Retour au catalogue

FENGYUN 1C DEB

ActifSSO
NORAD 30303·DEBRIS·🇨🇳 China

Lancé May 10, 1999 depuis Taiyuan Satellite Launch Center

Loading…

Prochains Passages (prochaines 24 heures)

TLE

FraisSource: Space-Track

Époque: Sep 14, 2026, 05:02 UTC

1 30303U 99025ZQ  26257.21022641  .00003554  00000-0  13931-2 0  9990
2 30303  99.0116 348.0088 0075144 206.4817 153.2515 14.28529962  8869

Suivez FENGYUN 1C DEB en temps réel avec AllMySat

Download on the App Store